Weather History for St. Thomas, VI

Change the Weather History Date:

Thursday, January 23, 2014

  Actual Average Record
Temperature  
Mean Temperature 80 °F 79 °F  
Max Temperature 83 °F 85 °F 91 °F (1995)
Min Temperature 76 °F 72 °F 68 °F (1983)
Degree Days  
Heating Degree Days 0 0  
Month to date heating degree days 0 0  
Since 1 July heating degree days 0 0  
Cooling Degree Days 15 14  
Month to date cooling degree days 305 322  
Year to date cooling degree days 305 322  
Growing Degree Days 29 (Base 50)    
Moisture  
Dew Point 73 °F    
Average Humidity 82    
Maximum Humidity 94    
Minimum Humidity 69    
Precipitation  
Precipitation 0.33 in 0.06 in 0.35 in (2003)
Month to date precipitation 0.77 1.86  
Year to date precipitation 0.77 1.86  
Sea Level Pressure  
Sea Level Pressure 30.08 in    
Wind  
Wind Speed 9 mph (East)    
Max Wind Speed 18 mph    
Max Gust Speed 24 mph    
Visibility 9 miles    
Events Rain    
T = Trace of Precipitation, MM = Missing Value Source: NWS Daily Summary

Daily Weather History Graph

Daily Weather History Graph

Search for Another Location

Airport:

Trip Planner

Search our weather history database for the weather conditions in past years. The results will help you decide how hot, cold, wet, or windy it might be!

Date:

Astronomy

Jan. 23, 2014 Rise Set
Actual Time 6:54 AM AST 6:08 PM AST
Civil Twilight 6:31 AM AST 6:31 PM AST
Nautical Twilight 6:05 AM AST 6:58 PM AST
Astronomical Twilight 5:38 AM AST 7:24 PM AST
Moon No Moon Rise 11:31 AM AST (1/23)
Length of Visible Light 12h 00m
Length of Day
11h 14m
Waning Gibbous, 56% of the Moon is Illuminated
Jan 23
Waning Gibbous
Jan 24
Last Quarter
Jan 30
New
Feb 6
First Quarter
Feb 14
Full

Hourly Weather History & Observations

Time (AST) Temp. Heat Index Dew Point Humidity Pressure Visibility Wind Dir Wind Speed Gust Speed Precip Events Conditions
12:53 AM 77.0 °F - 73.0 °F 88% 30.08 in 10.0 mi Calm Calm - N/A   Partly Cloudy
1:53 AM 77.0 °F - 73.9 °F 90% 30.06 in 10.0 mi East 6.9 mph - N/A   Clear
3:53 AM 75.9 °F - 72.0 °F 87% 30.04 in 10.0 mi East 5.8 mph - N/A   Clear
4:53 AM 75.9 °F - 72.0 °F 87% 30.05 in 10.0 mi East 8.1 mph - N/A   Clear
5:53 AM 75.9 °F - 72.0 °F 87% 30.06 in 10.0 mi East 8.1 mph - N/A   Clear
6:53 AM 75.9 °F - 73.0 °F 91% 30.07 in 10.0 mi East 5.8 mph - N/A   Clear
7:53 AM 79.0 °F - 73.9 °F 84% 30.09 in 10.0 mi East 4.6 mph - N/A   Partly Cloudy
8:12 AM 80.6 °F 85.4 °F 73.4 °F 79% 30.09 in 10.0 mi ENE 5.8 mph - N/A   Mostly Cloudy
8:36 AM 80.6 °F 85.4 °F 73.4 °F 79% 30.09 in 10.0 mi ESE 9.2 mph - N/A   Mostly Cloudy
8:53 AM 81.0 °F 85.8 °F 73.0 °F 77% 30.10 in 10.0 mi ESE 8.1 mph - N/A   Partly Cloudy
9:21 AM 77.0 °F - 73.4 °F 89% 30.11 in 2.0 mi East 5.8 mph - 0.05 in Rain Rain
9:29 AM 78.8 °F - 73.4 °F 83% 30.12 in 10.0 mi East 5.8 mph - 0.05 in   Overcast
9:53 AM 79.0 °F - 75.0 °F 88% 30.12 in 10.0 mi ESE 8.1 mph - 0.05 in   Mostly Cloudy
10:53 AM 81.0 °F 86.2 °F 73.9 °F 79% 30.12 in 9.0 mi ESE 10.4 mph - N/A   Mostly Cloudy
11:20 AM 78.8 °F - 75.2 °F 89% 30.11 in 4.0 mi East 9.2 mph - 0.03 in Rain Rain
11:28 AM 78.8 °F - 75.2 °F 89% 30.11 in 1.8 mi ENE 9.2 mph - 0.11 in Rain Heavy Rain
11:45 AM 77.0 °F - - N/A% 30.11 in 1.5 mi East 10.4 mph 20.7 mph 0.25 in Rain Light Rain
11:50 AM 77.0 °F - 75.2 °F 94% - 3.0 mi East 8.1 mph 16.1 mph 0.26 in Rain Rain
11:53 AM 77.0 °F - 75.0 °F 94% 30.11 in 4.0 mi ENE 6.9 mph - 0.26 in Rain Light Rain
1:53 PM 82.9 °F 88.8 °F 73.0 °F 72% 30.05 in 10.0 mi SSE 16.1 mph - N/A   Partly Cloudy
2:53 PM 82.9 °F 88.0 °F 72.0 °F 69% 30.04 in 10.0 mi SE 15.0 mph - N/A   Mostly Cloudy
3:31 PM 82.4 °F 87.2 °F 71.6 °F 70% 30.03 in 10.0 mi SE 13.8 mph - N/A   Mostly Cloudy
3:44 PM 82.4 °F 87.2 °F 71.6 °F 70% 30.03 in 10.0 mi SE 11.5 mph - N/A   Mostly Cloudy
3:53 PM 82.0 °F 86.7 °F 72.0 °F 71% 30.04 in 10.0 mi East 8.1 mph - N/A   Overcast
4:06 PM 80.6 °F 84.6 °F 71.6 °F 74% 30.04 in 10.0 mi ENE 5.8 mph - N/A   Mostly Cloudy
4:53 PM 80.1 °F 82.9 °F 69.1 °F 69% 30.04 in 10.0 mi East 16.1 mph - N/A   Clear
5:53 PM 80.1 °F 83.2 °F 70.0 °F 71% 30.06 in 10.0 mi East 12.7 mph - N/A   Partly Cloudy
6:53 PM 79.0 °F - 72.0 °F 79% 30.07 in 10.0 mi ENE 5.8 mph - N/A   Mostly Cloudy
8:53 PM 77.0 °F - 72.0 °F 84% 30.09 in 10.0 mi East 9.2 mph - N/A   Clear
9:53 PM 77.0 °F - 72.0 °F 84% 30.10 in 10.0 mi East 8.1 mph - N/A   Clear
10:53 PM 75.9 °F - 73.0 °F 91% 30.09 in 10.0 mi East 10.4 mph 16.1 mph 0.02 in Rain Light Rain